Regional Weather Roundup
Issued by NWS Columbia, SC

Home | Current Version | Previous Version | Text Only | Print | Product List | Glossary On
Versions: 1 2 3 4 5 6 7 8 9 10 11 12 13 14 15 16 17 18 19 20 21 22 23 24 25 26 27 28
000
ASUS42 KCAE 251910
RWRCAE
REGIONAL WEATHER ROUNDUP
NATIONAL WEATHER SERVICE COLUMBIA SC
300 PM EDT SAT OCT 25 2014

NOTE: "FAIR" INDICATES FEW OR NO CLOUDS BELOW 12,000 FEET WITH NO
SIGNIFICANT WEATHER AND/OR OBSTRUCTIONS TO VISIBILITY.

NOT ALL STATIONS ARE QUALITY CONTROLLED BY THE NATIONAL
WEATHER SERVICE. USE DATA WITH CAUTION...ESPECIALLY
DEWPOINT OBSERVATIONS.

SCZ001>056-GAZ040-063>065-077-252000-
...UPSTATE SOUTH CAROLINA...

CITY           SKY/WX    TMP DP  RH WIND       PRES   REMARKS
ANDERSON       SUNNY     72  41  32 S5        30.00F
LIBERTY        FAIR      73  50  43 MISG      29.99F
SPARTANBURG    FAIR      75  34  22 W6        29.98F
CLEMSON        SUNNY     74  44  34 W7        30.00F
GREENVILLE     SUNNY     74  43  32 W9        29.99F
GREENWOOD      SUNNY     71  39  31 SW3       30.01F
GREER          SUNNY     73  40  30 W8        29.97F
ROCK HILL      SUNNY     72  38  29 CALM      29.98F


...CENTRAL SOUTH CAROLINA...

CITY           SKY/WX    TMP DP  RH WIND       PRES   REMARKS
COLUMBIA APT   SUNNY     75  39  27 NW8       29.97F
COLUMBIA OWENS SUNNY     73  41  31 W5        29.98F
DARLINGTON     SUNNY     73  39  29 CALM      29.96F
FLORENCE       SUNNY     73  37  27 VRB3      29.94F
MCENTIRE ANGB  SUNNY     74  40  30 CALM      29.97F
ORANGEBURG     SUNNY     73  38  27 NW6       29.97F
SUMTER SHAW    SUNNY     74  41  30 W9        29.95F
NEWBERRY       FAIR      72  45  37 SW6       30.01F
AIKEN          FAIR      73  46  38 W3        30.01F
BARNWELL       FAIR      77  45  31 W6        29.98F
MANNING        FAIR      77  37  24 NW5       29.96F
CAMDEN         FAIR      72  36  26 W7        29.98S
LANCASTER      FAIR      72  36  26 N7        29.98F
WINNSBORO      FAIR      72  39  30 CALM      29.97F


...EASTERN AND COASTAL SOUTH CAROLINA...

CITY           SKY/WX    TMP DP  RH WIND       PRES   REMARKS
MYRTLE BEACH   SUNNY     73  41  31 NW12      29.95F
N MYRTLE BCH   SUNNY     76  41  28 VRB5      29.93F
CONWAY         FAIR      73  45  35 CALM      29.94F
MARION         FAIR      72  41  33 CALM      29.95F
FLORENCE       SUNNY     73  37  27 VRB3      29.94F
DARLINGTON     SUNNY     73  39  29 CALM      29.96F
CHARLESTON APT SUNNY     76  44  32 NW6       29.96F
MOUNT PLEASANT FAIR      73  48  40 W3        29.96F
WALTERBORO     CLEAR     73  36  25 N3        29.98F
BEAUFORT       SUNNY     75  47  36 NW6       29.98F


...EASTERN GEORGIA...

CITY           SKY/WX    TMP DP  RH WIND       PRES   REMARKS
AUGUSTA BUSH F SUNNY     78  34  20 NW10      29.98F
AUGUSTA DANIEL SUNNY     76  40  27 W6        29.99F
THOMSON        SUNNY     75  53  45 CALM      30.04F
WASHINGTON     FAIR      77  50  38 CALM      30.00F
CLAXTON        FAIR      77  46  33 N5        29.98F
SYLVANIA       CLEAR     81  51  35 NW6       29.99F
SAVANNAH       SUNNY     78  45  30 CALM      29.98F


...SOUTHERN NORTH CAROLINA...

CITY           SKY/WX    TMP DP  RH WIND       PRES   REMARKS
CHARLOTTE      SUNNY     72  33  24 VRB3      29.98F
MONROE         SUNNY     72  32  23 W9        29.96F
WADESBORO      CLEAR    N/A N/A N/A NW6       29.95F
ROCKINGHAM     CLEAR     70  41  35 W6        29.95F
RUTHERFORDTON  SUNNY     72  36  26 SW8       29.98F
ASHEVILLE      SUNNY     70  35  27 VRB7      30.02F

$$



USA.gov is the U.S. government's official web portal to all federal, state and local government web resources and services.